Probability
0 0 0 0 0 0 0 0 0 0 0 0 0 0 0 0 0 0 0 0 0 0 0 0 0 0 0 0 0 0 0 0 0 0 0 0 0 0 0 0 0 0 0
0 0 0 0 0 0 0 0 0 0 0 0 0 0 0 0 0 0 0 0 0 0 0 0 0 0 0 0 0 0 0 0 0 0 0 0 0 0 0 0 0 0 0
0 0 0 0 0 0 0 0 0 0 0 0 0 0 0 0 0 0 0 0 0 0 0 0 0 0 0 0 0 0 0 0 0 0 0 0 0 0 0 0 0 0 0
0 0 0 0 0 0 0 0 0 0 0 0 0 0 0 0 0 0 0 0 0 0 0 0 0 0 0 0 0 0 0 0 0 0 0 0 0 0 0 0 0 0 0
0 0 0 0 0 0 0 0 0 0 0 0 0 0 0 0 0 0 0 0 0 0 0 0 0 0 0 0 0 0 0 0 0 0 0 0 0 0 0 0 0 0 0
0 0 0 0 0 0 0 0 0 0 0 0 0 0 0 0 0 0 0 0 0 0 0 0 0 0 0 0 0 0 0 0 0 0 0 0 0 0 0 0 0 0 0
0 0 0 0 0 0 0 0 0 0 0 0 0 0 0 0 0 0 0 0 0 0 0 0 0 0 0 0 0 0 0 0 0 0 0 0 0 0 0 0 0 0 0
0 0 0 0 0 0 0 0 0 0 0 0 0 0 0 0 0 0 0 0 0 0 0 0 0 0 0 0 0 0 0 0 0 0 0 0 0 0 0 0 0 0 0
0 0 0 0 0 0 0 0 0 0 0 0 0 0 0 0 0 0 0 0 0 0 0 0 0 0 0 0 0 0 0 0 0 0 0 0 0 0 0 0 0 0 0
0 0 0 0 0 0 0 0 0 0 0 0 0 0 0 0 0 0 0 0 0 0 0 0 0 0 0 0 0 0 0 0 0 0 0 0 0 0 0 0 0 0 0
0 0 0 0 0 0 0 0 0 0 0 0 0 0 0 0 0 0 0 0 0 0 0 0 0 0 0 0 0 0 0 0 0 0 0 0 0 0 0 0 0 0 0
0 0 0 0 0 0 0 0 0 0 0 0 0 0 0 0 0 0 0 0 0 0 0 0 0 0 0 0 0 0 0 0 0 0 0 0 0 0 0 0 0 0 0
0 0 0 0 0 0 0 0 0 0 0 0 0 0 0 0 0 0 0 0 0 0 0 0 0 0 0 0 0 0 0 0 0 0 0 0 0 0 0 0 0 0 0
0 0 0 0 0 0 0 0 0 0 0 0 0 0 0 0 0 0 0 0 0 0 0 0 0 0 0 0 0 0 0 0 0 0 0 0 0 0 0 0 0 0 0
0 0 0 0 0 0 0 0 0 0 0 0 0 0 0 0 0 0 0 0 0 0 0 0 0 0 0 0 0 0 0 0 0 0 0 0 0 0 0 0 0 0 0
0 0 0 0 0 0 0 0 0 0 0 0 0 0 0 0 0 0 0 0 0 0 0 0 0 0 0 0 0 0 0 0 0 0 0 0 0 0 0 0 0 0 0
0 0 0 0 0 0 0 0 0 0 0 0 0 0 0 0 0 0 0 0 0 0 0 0 0 0 0 0 0 0 0 0 0 0 0 0 0 0 0 0 0 0 0
0 0 0 0 0 0 0 0 0 0 0 0 0 0 0 0 0 0 0 0 0 0 0 0 0 0 0 0 0 0 0 0 0 0 0 0 0 0 0 0 0 0 0
0 0 0 0 0 0 0 0 0 0 0 0 0 0 0 0 0 0 0 0 0 0 0 0 0 0 0 0 0 0 0 0 0 0 0 0 0 0 0 0 0 0 0
0 0 0 0 0 0 0 0 0 0 0 0 0 0 0 0 0 0 0 0 0 0 0 0 0 0 0 0 0 0 0 0 0 0 0 0 0 0 0 0 0 0 0
0 0 0 0 0 0 0 0 0 0 0 0 0 0 0 0 0 0 0 0 0 0 0 0 0 0 0 0 0 0 0 0 0 0 0 0 0 0 0 0 0 0 0
0 0 0 0 0 0 0 0 0 0 0 0 0 0 0 0 0 0 0 0 0 0 0 0 0 0 0 0 0 0 0 0 0 0 0 0 0 0 0 0 0 0 0
0 0 0 0 0 0 0 0 0 0 0 0 0 0 0 0 0 0 0 0 0 0 0 0 0 0 0 0 0 0 0 0 0 0 0 0 0 0 0 0 0 0 0
0 0 0 0 0 0 0 0 0 0 0 0 0 0 0 0 0 0 0 0 0 0 0 0 0 0 0 0 0 0 0 0 0 0 0 0 0 0 0 0 0 0 0
0 0 0 0 0 0 0 0 0 0 0 0 0 0 0 0 0 0 0 0 0 0 0 0 0 0 0 0 0 0 0 0 0 0 0 0 0 0 0 0 0 0 0
0 0 0 0 0 0 0 0 0 0 0 0 0 0 0 0 0 0 0 0 0 0 0 0 0 0 0 0 0 0 0 0 0 0 0 0 0 0 0 0 0 0 0
Height
5602 5598 5596 5593 5590 5587 5584 5582 5580 5578 5576 5575 5575 5575 5575 5577 5579 5581 5583 5585 5588 5590 5592 5593 5594 5595 5595 5596 5597 5598 5600 5601 5604 5607 5608 5610 5610 5611 5612 5613 5614 5615 5616
5596 5593 5590 5587 5584 5581 5578 5576 5573 5571 5569 5567 5567 5567 5567 5569 5571 5572 5574 5576 5578 5580 5582 5583 5584 5584 5585 5586 5586 5588 5589 5591 5593 5595 5597 5598 5600 5600 5601 5602 5603 5603 5604
5591 5588 5585 5582 5579 5576 5573 5570 5568 5565 5562 5561 5560 5560 5560 5562 5563 5565 5566 5568 5569 5571 5572 5573 5574 5575 5575 5576 5577 5578 5579 5581 5582 5584 5587 5588 5589 5589 5590 5591 5591 5592 5593
5587 5583 5580 5577 5574 5571 5568 5565 5562 5559 5557 5555 5554 5554 5554 5555 5556 5558 5559 5560 5561 5562 5563 5564 5565 5566 5566 5567 5568 5569 5570 5571 5573 5574 5576 5578 5579 5578 5579 5580 5581 5581 5582
5583 5579 5576 5572 5569 5566 5563 5560 5557 5554 5551 5549 5548 5548 5548 5549 5550 5551 5551 5552 5553 5554 5555 5556 5556 5557 5557 5558 5559 5560 5561 5562 5563 5564 5566 5568 5569 5569 5570 5570 5571 5571 5572
5579 5576 5572 5569 5565 5562 5558 5555 5552 5549 5547 5545 5543 5543 5543 5543 5543 5543 5543 5544 5545 5546 5547 5547 5548 5549 5550 5550 5550 5551 5552 5553 5554 5555 5557 5558 5559 5559 5559 5560 5560 5561 5562
5575 5572 5569 5565 5562 5558 5554 5551 5548 5545 5543 5540 5539 5538 5538 5537 5537 5536 5536 5536 5537 5538 5538 5539 5540 5541 5541 5542 5542 5542 5543 5544 5545 5546 5547 5548 5549 5550 5550 5550 5550 5551 5552
5571 5568 5565 5562 5558 5555 5551 5547 5544 5541 5539 5536 5535 5533 5532 5532 5530 5529 5529 5529 5530 5530 5531 5531 5531 5532 5532 5532 5533 5534 5534 5534 5535 5536 5538 5538 5539 5540 5540 5540 5540 5541 5542
5566 5564 5561 5557 5554 5551 5547 5543 5540 5537 5535 5532 5531 5529 5527 5526 5524 5523 5522 5523 5523 5523 5523 5523 5523 5524 5524 5523 5524 5525 5525 5525 5526 5526 5527 5528 5529 5530 5530 5530 5531 5531 5533
5562 5559 5556 5553 5549 5546 5543 5539 5536 5533 5530 5528 5526 5523 5522 5520 5518 5516 5516 5516 5516 5515 5515 5515 5515 5515 5514 5514 5515 5516 5517 5517 5518 5518 5519 5519 5520 5521 5521 5521 5521 5522 5523
5556 5554 5551 5548 5545 5541 5537 5534 5531 5528 5525 5522 5520 5518 5515 5513 5511 5510 5509 5508 5507 5507 5507 5507 5506 5506 5506 5506 5506 5507 5508 5509 5509 5510 5511 5511 5511 5512 5512 5512 5512 5513 5514
5551 5548 5545 5542 5539 5535 5532 5528 5525 5521 5519 5516 5514 5511 5509 5506 5504 5502 5501 5500 5499 5499 5499 5498 5498 5497 5497 5498 5498 5499 5500 5501 5501 5502 5502 5503 5503 5504 5504 5504 5504 5505 5506
5545 5542 5539 5536 5532 5529 5525 5522 5519 5515 5512 5509 5507 5504 5502 5500 5497 5495 5493 5492 5491 5491 5490 5490 5490 5490 5490 5490 5490 5491 5492 5493 5493 5494 5494 5495 5495 5495 5495 5496 5497 5498 5498
5538 5535 5532 5529 5526 5522 5518 5515 5512 5508 5505 5502 5500 5497 5495 5493 5490 5487 5486 5485 5484 5483 5483 5482 5482 5482 5482 5483 5483 5484 5484 5485 5485 5486 5486 5486 5487 5487 5488 5489 5490 5491 5492
5530 5528 5525 5521 5518 5514 5511 5507 5504 5501 5497 5495 5492 5489 5486 5485 5482 5480 5478 5478 5476 5476 5475 5475 5475 5475 5475 5476 5476 5476 5477 5477 5477 5478 5478 5479 5479 5480 5481 5482 5483 5485 5486
5522 5519 5516 5513 5510 5506 5503 5500 5496 5493 5489 5486 5482 5480 5477 5476 5474 5472 5471 5470 5469 5468 5468 5468 5468 5468 5469 5469 5469 5470 5470 5470 5470 5471 5471 5472 5473 5474 5475 5476 5477 5478 5479
5514 5511 5507 5504 5501 5498 5494 5491 5488 5485 5480 5477 5474 5471 5468 5466 5465 5464 5463 5462 5462 5461 5461 5461 5462 5462 5462 5462 5463 5463 5463 5463 5463 5463 5464 5465 5466 5467 5468 5470 5471 5472 5473
5505 5501 5498 5495 5492 5488 5485 5481 5478 5475 5472 5469 5465 5462 5460 5458 5456 5455 5454 5454 5454 5454 5455 5455 5455 5456 5456 5456 5456 5456 5456 5456 5456 5457 5458 5459 5460 5461 5462 5464 5465 5467 5468
5495 5492 5489 5486 5482 5479 5475 5472 5468 5465 5462 5459 5456 5454 5451 5450 5449 5448 5447 5447 5447 5448 5448 5448 5449 5449 5449 5450 5450 5450 5450 5450 5451 5451 5452 5453 5454 5456 5457 5459 5460 5461 5463
5485 5482 5479 5476 5473 5469 5466 5462 5459 5455 5452 5450 5447 5446 5444 5442 5441 5441 5440 5440 5440 5441 5441 5442 5442 5443 5443 5443 5444 5445 5445 5445 5446 5446 5447 5448 5450 5451 5453 5454 5456 5457 5458
5475 5472 5469 5466 5463 5459 5456 5453 5449 5446 5443 5441 5439 5437 5436 5435 5434 5434 5433 5434 5434 5435 5435 5436 5436 5437 5437 5438 5438 5439 5440 5440 5441 5442 5443 5444 5445 5447 5449 5450 5452 5453 5455
5465 5462 5459 5455 5452 5449 5446 5443 5440 5437 5435 5433 5431 5430 5428 5428 5427 5427 5427 5428 5428 5428 5429 5430 5430 5431 5432 5432 5433 5434 5435 5435 5436 5437 5438 5440 5441 5443 5445 5446 5448 5450 5451
5454 5451 5448 5445 5442 5439 5436 5434 5431 5429 5427 5425 5424 5423 5422 5421 5421 5421 5421 5422 5422 5423 5423 5424 5424 5425 5426 5427 5428 5428 5429 5430 5431 5432 5434 5435 5437 5438 5440 5442 5444 5446 5448
5444 5441 5438 5435 5432 5430 5427 5425 5423 5421 5420 5418 5417 5416 5416 5415 5415 5416 5416 5416 5417 5418 5418 5419 5420 5420 5421 5422 5422 5423 5424 5425 5426 5427 5429 5430 5432 5435 5437 5439 5441 5443 5445
5433 5431 5428 5426 5423 5421 5419 5417 5415 5414 5412 5411 5411 5410 5410 5410 5410 5410 5411 5411 5412 5413 5414 5414 5415 5416 5416 5417 5418 5419 5420 5421 5422 5423 5425 5427 5429 5432 5434 5436 5439 5441 5443
5424 5422 5419 5417 5414 5412 5410 5409 5407 5407 5406 5405 5405 5405 5404 5404 5405 5405 5406 5406 5407 5408 5409 5410 5410 5411 5412 5413 5414 5415 5416 5417 5418 5420 5422 5424 5427 5429 5432 5434 5436 5439 5441
Wind_Speed
27 27 26 26 26 27 27 28 30 32 32 32 31 31 31 32 33 35 36 36 37 38 38 39 39 41 40 41 43 43 42 43 42 41 42 42 42 42 44 44 45 46 45
27 26 25 25 25 25 25 26 27 29 30 30 30 29 30 30 31 32 34 35 35 36 36 37 37 37 38 39 39 39 39 40 41 41 41 42 42 43 43 43 43 44 44
25 25 24 24 24 24 25 26 26 27 28 27 27 28 28 29 30 30 32 33 33 34 35 34 35 35 35 36 36 36 37 38 39 39 39 40 40 41 41 41 41 42 43
24 24 24 24 24 25 25 26 26 26 26 25 25 26 26 27 28 30 30 31 31 32 33 32 32 33 33 35 35 35 36 36 37 36 36 37 38 39 39 39 40 41 41
22 22 23 23 24 25 25 25 26 25 24 24 24 24 24 26 27 29 29 30 29 30 30 31 32 32 32 33 33 34 34 35 35 35 34 35 36 36 36 38 38 38 38
22 23 22 24 24 25 25 25 24 24 23 22 22 23 24 24 25 27 28 29 29 28 29 31 32 32 31 31 32 33 33 34 35 35 34 33 34 34 35 36 36 35 35
23 24 23 24 25 25 25 25 24 22 22 21 21 22 23 24 26 27 28 28 28 28 29 30 31 30 31 31 32 32 33 33 34 33 33 32 32 32 33 34 34 33 33
23 24 24 25 25 25 24 24 23 22 21 21 21 22 23 25 26 26 26 25 27 28 28 28 28 29 30 32 33 32 32 32 31 31 32 31 31 32 32 32 32 31 31
23 23 23 24 24 25 25 25 24 22 22 22 22 22 23 24 25 26 26 26 26 27 27 28 29 30 31 32 31 30 30 30 31 31 30 31 31 32 32 32 31 30 29
23 23 23 24 24 25 26 25 24 24 24 23 23 24 25 25 25 26 26 27 27 27 28 29 29 30 30 30 29 29 28 28 29 29 30 31 31 31 31 31 30 29 28
24 24 24 25 25 26 26 25 26 26 25 25 25 26 26 26 27 27 27 28 28 28 28 29 29 28 28 27 28 27 27 27 27 27 29 30 30 30 29 28 28 27 26
25 25 26 26 27 28 27 27 27 27 27 27 27 27 27 27 28 28 29 29 28 28 28 28 28 27 26 26 26 26 26 26 26 26 27 27 27 27 27 26 25 25 24
27 27 27 28 29 30 29 29 29 28 27 28 28 28 28 28 29 29 29 28 28 27 27 27 26 25 25 25 25 25 25 25 25 24 24 24 24 24 25 24 23 23 23
27 28 29 30 31 31 30 30 30 30 30 30 30 30 29 28 28 28 27 26 26 25 25 25 25 25 24 25 25 25 25 24 24 23 23 23 23 23 23 23 22 22 22
29 30 31 31 32 31 31 31 32 32 32 32 32 31 30 29 28 27 27 25 24 24 24 23 22 22 22 22 23 23 23 23 23 23 23 23 23 21 21 21 21 21 21
31 32 32 33 32 32 32 33 33 34 35 34 33 32 31 29 28 27 26 25 24 23 22 21 21 20 20 20 21 21 22 22 23 23 23 22 21 20 20 20 20 20 20
32 33 33 33 33 33 34 35 35 36 36 34 33 32 30 29 28 26 25 24 23 21 21 20 20 20 20 20 20 21 21 22 22 22 22 21 19 19 19 20 19 19 18
33 34 34 34 34 35 35 35 36 36 34 33 32 31 29 29 27 25 24 23 23 22 21 21 21 20 20 20 20 20 20 20 20 20 20 20 19 18 17 18 18 17 17
34 34 34 35 35 35 35 35 35 34 33 32 30 29 28 27 25 24 23 22 22 21 21 21 21 21 20 20 19 19 19 19 18 18 17 17 17 17 16 16 15 15 15
35 35 36 36 35 35 35 34 34 32 31 29 28 26 25 24 23 23 22 22 21 20 20 20 21 20 20 19 19 19 18 17 16 16 16 16 15 15 15 15 14 13 13
36 37 37 37 35 34 33 33 33 31 29 28 26 25 23 22 22 22 21 20 19 19 19 19 19 19 18 18 18 18 17 16 15 14 14 15 15 14 13 13 13 12 12
36 36 36 35 34 33 33 32 30 29 27 25 24 23 22 21 20 19 20 19 18 18 18 18 18 18 17 17 17 16 16 16 15 14 14 14 14 14 13 12 11 10 10
35 35 35 34 33 32 31 30 28 26 24 22 21 21 20 19 18 18 18 18 18 17 16 17 17 17 16 16 15 15 15 14 15 15 14 14 14 13 12 12 11 10 10
33 33 32 31 30 29 28 27 25 23 22 20 20 19 18 18 17 17 17 16 16 16 15 16 16 15 15 15 14 14 14 14 14 14 14 14 13 12 11 11 10 10 10
32 31 30 29 28 27 26 24 23 21 20 19 18 17 17 16 16 16 16 16 15 15 15 15 15 15 14 14 14 13 13 12 12 12 12 12 12 12 11 10 10 11 11
30 29 28 27 27 26 24 23 21 19 18 17 17 17 16 15 15 15 15 15 15 15 15 14 14 13 13 13 12 11 11 11 10 10 11 11 12 12 11 10 10 11 11
Wind_Direction
299 298 295 293 293 291 287 284 282 281 280 276 273 272 271 267 263 262 260 258 259 261 263 264 265 266 266 265 264 261 260 261 261 260 260 260 261 262 264 265 264 264 265
301 301 297 297 295 294 292 290 289 286 282 278 275 274 271 267 265 264 261 260 260 262 264 264 264 266 267 265 263 262 261 261 262 261 262 263 262 263 265 265 265 264 264
302 303 301 299 297 296 295 294 294 292 287 282 279 275 270 265 264 266 266 262 262 264 264 264 264 265 266 263 262 262 263 263 264 263 262 262 263 262 263 265 265 265 265
302 303 303 301 299 298 296 296 298 296 290 286 282 276 270 266 266 268 269 266 264 264 264 264 265 266 265 263 263 263 264 264 264 264 263 263 263 263 263 264 264 265 265
303 305 304 305 304 301 299 299 300 298 294 289 284 278 271 269 269 270 270 268 266 265 263 262 265 266 266 265 264 264 265 265 264 264 264 264 264 264 265 265 264 265 266
304 306 308 309 308 307 304 305 303 299 295 292 284 276 272 274 273 272 273 271 268 265 262 263 265 266 265 265 265 266 267 267 265 266 265 265 264 265 266 267 265 265 265
302 305 307 308 307 307 308 309 305 298 295 291 284 277 276 277 275 276 275 273 270 267 265 264 263 264 265 265 265 268 269 268 268 268 266 266 266 265 267 268 268 266 266
300 302 303 306 307 308 310 310 305 300 295 292 288 284 282 280 278 278 276 275 274 271 268 267 268 269 268 267 267 268 270 270 270 268 268 268 267 267 269 269 269 267 264
299 301 303 305 307 307 309 307 305 300 295 291 289 286 286 284 283 281 278 277 276 274 272 273 272 271 270 269 268 269 271 271 268 269 270 269 268 268 270 270 270 268 264
299 301 303 304 305 306 307 305 303 300 295 292 291 291 290 287 284 282 278 278 278 276 275 275 274 272 271 268 268 269 271 270 268 269 269 269 268 268 270 270 271 268 265
299 300 302 303 304 305 305 304 302 300 296 293 291 292 290 287 285 283 281 280 279 277 275 274 274 273 272 270 270 270 270 268 268 268 267 268 267 267 269 271 270 267 264
297 298 299 300 302 303 303 303 302 299 296 294 292 291 289 287 286 284 283 282 280 278 277 276 276 274 271 270 269 269 268 267 269 269 268 269 268 267 267 267 267 266 266
293 295 296 298 299 301 301 302 302 301 297 295 294 292 289 288 286 284 282 280 278 277 277 277 276 273 271 271 269 268 268 268 269 267 266 265 265 265 267 266 266 266 266
290 292 294 296 297 297 298 300 300 299 297 295 294 292 290 288 286 284 281 279 277 276 278 277 274 272 271 270 269 269 270 270 271 268 266 265 266 265 265 265 265 263 264
292 293 295 296 296 295 296 297 298 297 297 295 293 290 289 286 283 281 280 279 279 279 277 275 274 273 271 270 271 272 270 270 271 270 267 266 266 263 261 262 262 259 261
292 294 295 295 295 294 294 295 297 298 296 294 292 290 288 284 281 279 278 278 278 277 275 273 271 271 271 271 270 271 272 271 270 269 265 263 263 262 262 263 262 262 264
293 294 294 295 295 294 294 295 296 297 297 295 291 289 286 283 281 279 277 276 275 275 274 271 269 270 270 271 272 274 274 271 269 267 263 261 262 262 261 261 261 262 262
293 294 295 296 295 295 294 295 296 297 295 293 290 287 284 281 280 278 277 274 271 272 270 269 270 269 269 271 273 274 274 273 271 267 264 261 261 262 260 259 259 259 259
294 295 295 296 296 295 295 295 296 296 294 291 288 284 281 279 278 277 276 272 269 268 268 268 268 268 270 271 272 273 273 272 269 265 264 262 261 261 259 258 257 257 255
294 295 296 295 295 295 294 295 295 293 292 289 286 282 279 277 275 274 272 270 266 265 265 266 266 267 268 269 270 270 268 267 265 263 263 262 260 258 256 253 253 252 246
294 294 295 295 293 294 294 294 293 291 290 288 285 282 278 275 273 270 267 265 262 263 264 263 263 264 265 268 268 266 264 262 261 261 260 258 254 252 250 247 247 246 241
293 294 295 294 293 292 292 293 292 290 289 286 283 279 277 274 270 267 263 261 260 261 261 260 262 261 263 265 264 263 262 260 258 256 255 253 250 247 246 244 240 239 235
293 294 294 293 293 292 291 291 289 287 286 283 280 278 274 270 267 265 263 261 260 260 259 257 257 258 260 261 261 259 258 258 256 253 251 248 243 241 240 236 234 232 227
293 294 294 293 293 292 292 289 286 284 282 280 277 274 272 269 266 263 261 259 257 256 255 256 255 255 257 259 259 257 256 255 252 249 243 237 232 231 228 225 225 220 217
291 293 293 293 292 292 291 288 283 281 279 276 273 271 271 268 264 261 258 255 255 254 255 256 256 253 253 254 255 254 250 247 244 238 230 226 222 220 218 220 219 213 208
291 291 291 291 291 290 289 285 280 277 274 272 271 269 267 266 264 260 256 254 253 254 254 253 254 252 251 250 250 246 242 236 230 224 219 215 212 210 212 212 209 204 199